Location: Unspecified
(46.0725°N, 13.7344°E)
Time: 00:41:55
(UTC+02:00)

CZ-3 Stage 3 - Visible Passes

Search period start: 19 June 2018 00:00
Search period end: 29 June 2018 00:00
Orbit: 407 x 34788 km, 30.8° (Epoch: 18 June)

Date Brightness Start Highest point End Pass type
(mag) Time Alt. Az. Time Alt. Az. Time Alt. Az.
20 Jun 6.9 02:20:09 18° SSW 04:42:51 25° SW 09:52:17 10° SE visible
20 Jun 8.4 22:48:11 14° SE 05:38:55 59° SSE 06:15:25 10° E daylight
21 Jun 9.0 22:11:39 10° ESE 01:22:48 31° ESE 02:27:18 10° E visible
23 Jun 6.9 01:17:49 10° SSW 04:30:54 26° SW 09:42:32 10° SE visible
23 Jun 8.4 22:10:21 10° SE 05:28:27 60° SSE 06:05:40 10° E daylight
24 Jun 8.9 21:56:35 10° ESE 01:11:57 31° ESE 02:17:38 10° E visible
26 Jun 6.9 01:05:20 10° SSW 04:18:58 27° SW 09:32:45 10° SE visible
26 Jun 8.3 21:56:31 10° SE 05:17:53 61° SSE 05:55:53 10° E daylight
27 Jun 8.9 21:41:35 10° ESE 01:01:01 32° ESE 02:07:53 10° E visible
